Pompano Beach, FL

5:12 AM EDT on September 29, 2016 (GMT -0400)
Pompano Beach

Weather History for KPMP - October, 2012

Change the Weather History Date:

Saturday, October 6, 2012

  Actual Average Record
Temperature  
Mean Temperature 78 °F -  
Max Temperature 84 °F 88 °F 95 °F (1986)
Min Temperature 73 °F 72 °F 64 °F (1992)
Cooling Degree Days 12    
Growing Degree Days 28 (Base 50)    
Moisture  
Dew Point 75 °F    
Average Humidity 89    
Maximum Humidity 100    
Minimum Humidity 72    
Precipitation  
Precipitation 0.41 in - - ()
Sea Level Pressure  
Sea Level Pressure 29.93 in    
Wind  
Wind Speed 6 mph (East)    
Max Wind Speed 15 mph    
Max Gust Speed 21 mph    
Visibility 9 miles    
Events Rain , Thunderstorm    
Averages and records for this station are not official NWS values.
T = Trace of Precipitation, MM = Missing Value Source: NWS Daily Summary

Daily Weather History Graph

Daily Weather History Graph

Search for Another Location

Airport or City:

Trip Planner

Search our weather history database for the weather conditions in past years. The results will help you decide how hot, cold, wet, or windy it might be!

Date:

Astronomy

Oct. 06, 2012 Rise Set
Actual Time 7:15 AM EDT 7:01 PM EDT
Civil Twilight 6:52 AM EDT 7:24 PM EDT
Nautical Twilight 6:25 AM EDT 7:50 PM EDT
Astronomical Twilight 5:58 AM EDT 8:17 PM EDT
Moon 11:39 PM EDT (10/6) 12:43 PM EDT (10/6)
Length of Visible Light 12h 31m
Length of Day
11h 45m
Waning Gibbous, 65% of the Moon is Illuminated
Oct 6
Waning Gibbous
Oct 8
Last Quarter
Oct 15
New
Oct 21
First Quarter
Oct 29
Full

Hourly Weather History & Observations

Time (EDT) Temp. Heat Index Dew Point Humidity Pressure Visibility Wind Dir Wind Speed Gust Speed Precip Events Conditions
12:53 AM 78.1 °F - 75.0 °F 90% 29.98 in 10.0 mi ENE 4.6 mph - N/A   Clear
1:53 AM 79.0 °F - 75.0 °F 88% 29.96 in 10.0 mi East 5.8 mph - N/A   Partly Cloudy
2:53 AM 78.1 °F - 75.9 °F 93% 29.94 in 10.0 mi East 8.1 mph - N/A   Clear
3:53 AM 79.0 °F - 75.9 °F 90% 29.92 in 10.0 mi ESE 6.9 mph - N/A   Partly Cloudy
4:53 AM 78.1 °F - 75.0 °F 90% 29.92 in 10.0 mi ESE 6.9 mph - N/A   Partly Cloudy
5:53 AM 78.1 °F - 75.0 °F 90% 29.92 in 10.0 mi SE 4.6 mph - N/A   Partly Cloudy
6:43 AM 78.8 °F - 75.2 °F 89% 29.94 in 10.0 mi SE 5.8 mph - N/A   Mostly Cloudy
6:50 AM 78.8 °F - 75.2 °F 89% 29.94 in 10.0 mi SE 4.6 mph - N/A   Scattered Clouds
6:53 AM 78.1 °F - 75.0 °F 90% 29.94 in 10.0 mi SE 3.5 mph - N/A   Scattered Clouds
7:53 AM 79.0 °F - 75.0 °F 88% 29.94 in 10.0 mi Calm Calm - N/A   Clear
8:53 AM 81.0 °F 86.7 °F 75.0 °F 82% 29.95 in 10.0 mi ESE 6.9 mph - N/A   Scattered Clouds
9:53 AM 82.0 °F 87.9 °F 73.9 °F 76% 29.96 in 10.0 mi Calm Calm - N/A   Scattered Clouds
10:53 AM 82.0 °F 87.9 °F 73.9 °F 76% 29.96 in 10.0 mi SE 5.8 mph - N/A   Partly Cloudy
11:53 AM 82.9 °F 89.4 °F 73.9 °F 74% 29.95 in 10.0 mi East 9.2 mph - N/A   Scattered Clouds
12:53 PM 82.9 °F 90.2 °F 75.0 °F 77% 29.93 in 10.0 mi East 5.8 mph - N/A   Mostly Cloudy
1:53 PM 82.9 °F 88.8 °F 73.0 °F 72% 29.91 in 10.0 mi East 8.1 mph - N/A   Mostly Cloudy
2:53 PM 81.0 °F 85.8 °F 73.0 °F 77% 29.89 in 10.0 mi ESE 8.1 mph - N/A   Clear
3:53 PM 81.0 °F 86.7 °F 75.0 °F 82% 29.87 in 10.0 mi East 6.9 mph - N/A   Clear
4:53 PM 81.0 °F 87.3 °F 75.9 °F 85% 29.88 in 10.0 mi East 8.1 mph - N/A   Mostly Cloudy
5:53 PM 80.1 °F 85.1 °F 75.0 °F 85% 29.88 in 10.0 mi ESE 6.9 mph - N/A   Partly Cloudy
7:53 PM 77.0 °F - 75.9 °F 96% 29.91 in 10.0 mi North 3.5 mph - 0.02 in Rain Light Rain
8:08 PM 75.2 °F - 73.4 °F 94% 29.92 in 10.0 mi ENE 11.5 mph 17.3 mph 0.01 in Rain Light Rain
8:24 PM 73.4 °F - 73.4 °F 100% 29.92 in 1.8 mi NNE 15.0 mph 20.7 mph 0.24 in Rain Heavy Rain
8:27 PM 73.4 °F - 73.4 °F 100% 29.92 in 2.0 mi NE 15.0 mph 20.7 mph 0.25 in Rain Heavy Rain
8:36 PM 73.4 °F - 73.4 °F 100% 29.93 in 4.0 mi East 8.1 mph - 0.32 in Rain Heavy Rain
8:53 PM 73.9 °F - 73.0 °F 97% 29.93 in 7.0 mi East 9.2 mph 18.4 mph 0.36 in Rain Light Rain
9:53 PM 75.9 °F - 75.9 °F 100% 29.94 in 10.0 mi Calm Calm - 0.01 in Rain Light Rain
10:53 PM 75.9 °F - 75.9 °F 100% 29.95 in 10.0 mi NNW 3.5 mph - 0.02 in   Mostly Cloudy
11:50 PM 75.2 °F - 75.2 °F 100% 29.95 in 3.0 mi South 4.6 mph - 0.10 in Rain , Thunderstorm Heavy Thunderstorms and Rain